Home   Weather   Linköping   Past weeks

Flag for Sweden Past Weather in Linköping, Sweden — Yesterday and Last 2 Weeks

Now
57 °F

Passing clouds.


Feels Like: 53 °F
Forecast: 51 / 60 °F
Wind: 18 mph from West

Location: Linkoping / Saab

Current Time: Sep 30, 2016 at 12:17:07 PM

Latest Report: Sep 30, 2016 at 11:20 AM


Visibility: N/A

Pressure: 29.50 "Hg

Humidity: 59%

Dew Point: 43 °F

Location of LinköpingLocation

Past Weather in Linköping — Graph

°F

Linköping Temperature Yesterday

Maximum temperature yesterday: 68 °F (at 1:50 PM)
Minimum temperature yesterday: 54 °F (at 3:50 AM)
Average temperature yesterday: 59 °F

High & Low Weather Summary for the Past Weeks

 TemperatureHumidityPressure
High79 °F (Sep 15, 3:20 PM)100% (Sep 17, 6:50 AM)30.30 "Hg (Sep 17, 6:50 AM)
Low41 °F (Sep 21, 5:50 AM)46% (Sep 19, 12:50 PM)29.27 "Hg (Sep 30, 2:50 AM)
Average57 °F78%30.06 "Hg
* Reported Sep 15 11:20 AM — Sep 30 11:20 AM, Linköping, Weather by CustomWeather, © 2016

Note: Actual official high and low records may vary slightly from our data, if they occured in-between our weather recording intervals... More about our weather records

Advertising

Linköping Weather History for the Previous 24 Hours

Scroll right to see more
 ConditionsComfort  
Time TempWeatherWind HumidityBarometerVisibility
11:20 AM
Fri, Sep 30
57 °FPassing clouds.18 mph59%29.50 "HgN/A
10:50 AM55 °FPassing clouds.18 mph63%29.50 "HgN/A
9:50 AM54 °FPassing clouds.18 mph67%29.47 "HgN/A
9:20 AM54 °FPassing clouds.20 mph67%29.45 "HgN/A
8:50 AM54 °FPassing clouds.18 mph67%29.45 "HgN/A
8:20 AM52 °FPassing clouds.17 mph72%29.42 "HgN/A
7:50 AM52 °FPassing clouds.18 mph72%29.42 "HgN/A
7:20 AM52 °FPassing clouds.17 mph77%29.39 "HgN/A
6:50 AM52 °FPassing clouds.16 mph77%29.39 "HgN/A
6:20 AM52 °FPassing clouds.18 mph77%29.36 "HgN/A
5:50 AM54 °FPassing clouds.15 mph72%29.36 "HgN/A
5:20 AM54 °FPassing clouds.18 mph72%29.33 "HgN/A
4:50 AM54 °FCool.20 mph72%29.30 "HgN/A
4:20 AM55 °FCool.21 mph67%29.30 "HgN/A
3:50 AM55 °FCool.18 mph72%29.30 "HgN/A
3:20 AM55 °FCool.20 mph72%29.27 "HgN/A
2:50 AM55 °FCool.24 mph72%29.27 "HgN/A
2:20 AM55 °FCool.20 mph72%29.30 "HgN/A
1:20 AM55 °FPassing clouds.20 mph72%29.30 "HgN/A
12:50 AM55 °FPassing clouds.17 mph67%29.30 "HgN/A
12:20 AM57 °FPartly cloudy.17 mph63%29.30 "HgN/A
11:50 PM
Thu, Sep 29
57 °FPartly cloudy.18 mph67%29.30 "HgN/A
11:20 PM57 °FPassing clouds.20 mph63%29.30 "HgN/A
10:50 PM57 °FPassing clouds.16 mph67%29.30 "HgN/A
10:20 PM57 °FPassing clouds.17 mph67%29.30 "HgN/A
9:50 PM57 °FPassing clouds.17 mph67%29.30 "HgN/A
9:20 PM57 °FPassing clouds.18 mph67%29.33 "HgN/A
8:50 PM57 °FPassing clouds.17 mph67%29.33 "HgN/A
8:20 PM59 °FPartly cloudy.18 mph68%29.33 "HgN/A
7:50 PM59 °FPassing clouds.20 mph63%29.33 "HgN/A
7:20 PM61 °FPassing clouds.15 mph59%29.30 "HgN/A
6:50 PM61 °FPassing clouds.10 mph72%29.33 "HgN/A
6:20 PM61 °FBroken clouds.13 mph72%29.33 "HgN/A
5:50 PM63 °FPartly sunny.17 mph68%29.30 "HgN/A
5:20 PM63 °FPartly sunny.18 mph64%29.33 "HgN/A
4:50 PM64 °FPartly sunny.20 mph64%29.33 "HgN/A
4:20 PM64 °FScattered clouds.18 mph68%29.33 "HgN/A
3:50 PM64 °FScattered clouds.17 mph64%29.33 "HgN/A
3:20 PM64 °FPartly sunny.17 mph68%29.36 "HgN/A
2:50 PM66 °FBroken clouds.18 mph68%29.36 "HgN/A
2:20 PM66 °FDrizzle. Partly sunny.23 mph73%29.36 "HgN/A
1:50 PM68 °FBroken clouds.16 mph69%29.36 "HgN/A
1:20 PM66 °FPartly sunny.15 mph78%29.36 "HgN/A
12:50 PM66 °FOvercast.16 mph78%29.39 "HgN/A
12:20 PM64 °FPartly sunny.12 mph83%29.42 "HgN/A
Weather by CustomWeather, © 2016

See weather overviewHow to use our weather pages